,,Stat5,,Stat1,,Stat2,,Stat3,,Stat4,,Wind1,,Wind1,
time,status,PA1M_AVG,status,PR1M_SUM,status,RH1M_AVG,status,SR1M_AVG,status,TA1M_AVG,status,W1dAve1m,status,W1sAve1m,
2001-12-18, 00:00:00,VALID,920.353,VALID,0,VALID,95.9705,VALID,-0.0849042,VALID,21.0883,VALID,24,VALID,0.966406,
2001-12-18, 00:01:00,VALID,920.347,VALID,0,VALID,95.9235,VALID,-0.101885,VALID,21.0718,VALID,22,VALID,0.977564,
2001-12-18, 00:02:00,VALID,920.337,VALID,0,VALID,95.8434,VALID,-0.0849042,VALID,21.0694,VALID,15,VALID,1.06328,
2001-12-18, 00:03:00,VALID,920.339,VALID,0,VALID,95.8574,VALID,-0.101885,VALID,21.0368,VALID,11,VALID,1.11839,
2001-12-18, 00:04:01,VALID,920.319,VALID,0,VALID,95.9845,VALID,-0.0679233,VALID,21.0274,VALID,12,VALID,1.17743,
2001-12-18, 00:05:01,VALID,920.326,VALID,0,VALID,96.0774,VALID,-0.101885,VALID,20.9945,VALID,18,VALID,1.13137,
2001-12-18, 00:06:01,VALID,920.329,VALID,0,VALID,96.1244,VALID,0.0169808,VALID,20.9703,VALID,21,VALID,0.951723,
2001-12-18, 00:07:00,VALID,920.322,VALID,0,VALID,96.2388,VALID,0,VALID,20.9539,VALID,358,VALID,0.666797,
2001-12-18, 00:08:00,VALID,920.321,VALID,0,VALID,96.1409,VALID,0.0169808,VALID,20.938,VALID,347,VALID,0.996833,
2001-12-18, 00:09:00,VALID,920.313,VALID,0,VALID,96.1765,VALID,0.0169808,VALID,20.9124,VALID,9,VALID,1.40445,
2001-12-18, 00:10:00,VALID,920.304,VALID,0,VALID,96.3012,VALID,0.0169808,VALID,20.9057,VALID,8,VALID,1.05068,
2001-12-18, 00:11:00,VALID,920.308,VALID,0,VALID,96.305,VALID,0,VALID,20.9089,VALID,13,VALID,1.68877,
2001-12-18, 00:12:01,VALID,920.279,VALID,0,VALID,96.3825,VALID,0.0169808,VALID,20.9057,VALID,15,VALID,1.70354,
2001-12-18, 00:13:00,VALID,920.266,VALID,0,VALID,96.5415,VALID,0,VALID,20.8958,VALID,6,VALID,1.07895,
2001-12-18, 00:14:01,VALID,920.263,VALID,0,VALID,96.544,VALID,0,VALID,20.8896,VALID,349,VALID,0.329427,
2001-12-18, 00:15:00,VALID,920.25,VALID,0,VALID,96.6369,VALID,0.0339617,VALID,20.8965,VALID,7,VALID,0.143229,
2001-12-18, 00:16:00,VALID,920.259,VALID,0,VALID,96.6534,VALID,0.0169808,VALID,20.9189,VALID,357,VALID,0.150082,
2001-12-18, 00:17:00,VALID,920.249,VALID,0,VALID,96.6102,VALID,0.0169808,VALID,20.9124,VALID,2,VALID,0.188345,
2001-12-18, 00:18:01,VALID,920.269,VALID,0,VALID,96.675,VALID,0,VALID,20.9216,VALID,18,VALID,0.593987,
2001-12-18, 00:19:00,VALID,920.294,VALID,0,VALID,96.6127,VALID,0.0169808,VALID,20.9181,VALID,21,VALID,0.326275,
2001-12-18, 00:20:00,VALID,920.314,VALID,0,VALID,96.5453,VALID,0,VALID,20.9052,VALID,45,VALID,0.354941,
2001-12-18, 00:21:01,VALID,920.33,VALID,0,VALID,96.6,VALID,0.0169808,VALID,20.9251,VALID,35,VALID,0.489286,
2001-12-18, 00:22:01,VALID,920.341,VALID,0,VALID,96.5733,VALID,0,VALID,20.9192,VALID,26,VALID,0.656696,
2001-12-18, 00:23:00,VALID,920.34,VALID,0,VALID,96.455,VALID,0,VALID,20.896,VALID,54,VALID,1.08665,
2001-12-18, 00:24:00,VALID,920.348,VALID,0,VALID,96.4983,VALID,0.0169808,VALID,20.896,VALID,49,VALID,0.994792,
2001-12-18, 00:25:00,VALID,920.32,VALID,0,VALID,96.5428,VALID,0,VALID,20.8993,VALID,48,VALID,0.806127,
2001-12-18, 00:26:00,VALID,920.305,VALID,0,VALID,96.4169,VALID,0.0339617,VALID,20.9095,VALID,51,VALID,0.741587,
2001-12-18, 00:27:01,VALID,920.287,VALID,0,VALID,96.4474,VALID,-0.0169808,VALID,20.8998,VALID,46,VALID,0.410937,
2001-12-18, 00:28:00,VALID,920.261,VALID,0,VALID,96.4067,VALID,-0.0169808,VALID,20.9057,VALID,47,VALID,0.522768,
2001-12-18, 00:29:00,VALID,920.222,VALID,0,VALID,96.4334,VALID,0,VALID,20.9022,VALID,41,VALID,0.319046,
2001-12-18, 00:30:00,VALID,920.194,VALID,0,VALID,96.5021,VALID,0,VALID,20.9192,VALID,24,VALID,0.540211,
2001-12-18, 00:31:00,VALID,920.174,VALID,0,VALID,96.5097,VALID,-0.0169808,VALID,20.9318,VALID,24,VALID,0.434821,
2001-12-18, 00:32:00,VALID,920.142,VALID,0,VALID,96.5275,VALID,0,VALID,20.955,VALID,20,VALID,0.391026,
2001-12-18, 00:33:00,VALID,920.143,VALID,0,VALID,96.5504,VALID,0,VALID,20.9798,VALID,14,VALID,0.266047,
2001-12-18, 00:34:00,VALID,920.141,VALID,0,VALID,96.2821,VALID,0,VALID,21.0029,VALID,5,VALID,0.302632,
2001-12-18, 00:35:00,VALID,920.157,VALID,0,VALID,96.0456,VALID,-0.0169808,VALID,20.9574,VALID,4,VALID,0.222098,
2001-12-18, 00:36:01,VALID,920.163,VALID,0,VALID,96.0507,VALID,0,VALID,20.9614,VALID,4,VALID,0.0472756,
2001-12-18, 00:37:00,VALID,920.178,VALID,0,VALID,96.1562,VALID,0.0339617,VALID,20.9668,VALID,3,VALID,0.211884,
2001-12-18, 00:38:00,VALID,920.2,VALID,0,VALID,96.0837,VALID,0.0339617,VALID,20.9701,VALID,345,VALID,0.506944,
2001-12-18, 00:39:01,VALID,920.218,VALID,0,VALID,96.0405,VALID,0.0169808,VALID,20.9738,VALID,360,VALID,0.629112,
2001-12-18, 00:40:00,VALID,920.226,VALID,0,VALID,96.0888,VALID,0,VALID,20.9671,VALID,16,VALID,0.823518,
2001-12-18, 00:41:01,VALID,920.225,VALID,0,VALID,96.1524,VALID,0,VALID,20.9738,VALID,15,VALID,0.915039,
2001-12-18, 00:42:01,VALID,920.237,VALID,0,VALID,96.2058,VALID,-0.0169808,VALID,20.9873,VALID,21,VALID,0.85692,
2001-12-18, 00:43:01,VALID,920.212,VALID,0,VALID,96.3291,VALID,0,VALID,20.9927,VALID,20,VALID,0.916385,
2001-12-18, 00:44:00,VALID,920.207,VALID,0,VALID,96.3012,VALID,-0.0339617,VALID,21.0325,VALID,19,VALID,0.913373,
2001-12-18, 00:45:01,VALID,920.198,VALID,0,VALID,96.2643,VALID,0,VALID,21.0385,VALID,25,VALID,0.748438,
2001-12-18, 00:46:01,VALID,920.181,VALID,0,VALID,96.2312,VALID,0,VALID,21.0514,VALID,37,VALID,0.670473,
2001-12-18, 00:47:01,VALID,920.16,VALID,0,VALID,96.1651,VALID,0,VALID,21.0678,VALID,22,VALID,0.887247,
2001-12-18, 00:48:01,VALID,920.14,VALID,0,VALID,96.0926,VALID,0,VALID,21.0541,VALID,21,VALID,1.1213,
2001-12-18, 00:49:01,VALID,920.131,VALID,0,VALID,95.912,VALID,0.0169808,VALID,21.0317,VALID,11,VALID,1.16429,
2001-12-18, 00:50:01,VALID,920.123,VALID,0,VALID,95.8485,VALID,0,VALID,20.983,VALID,11,VALID,1.04367,
2001-12-18, 00:51:01,VALID,920.143,VALID,0,VALID,95.9807,VALID,-0.0339617,VALID,20.949,VALID,14,VALID,0.566051,
2001-12-18, 00:52:01,VALID,920.148,VALID,0,VALID,96.057,VALID,-0.0679233,VALID,20.9358,VALID,16,VALID,0.495009,
2001-12-18, 00:53:01,VALID,920.16,VALID,0,VALID,96.0761,VALID,-0.0339617,VALID,20.9127,VALID,5,VALID,0.469367,
2001-12-18, 00:54:01,VALID,920.154,VALID,0,VALID,96.0138,VALID,-0.0849042,VALID,20.9065,VALID,351,VALID,0.466747,
2001-12-18, 00:55:01,VALID,920.159,VALID,0,VALID,95.968,VALID,-0.0509425,VALID,20.8841,VALID,348,VALID,0.650977,
2001-12-18, 00:56:01,VALID,920.153,VALID,0,VALID,96.0646,VALID,-0.0679233,VALID,20.8448,VALID,6,VALID,0.610714,
2001-12-18, 00:57:01,VALID,920.159,VALID,0,VALID,96.1664,VALID,-0.0509425,VALID,20.8384,VALID,1,VALID,0.542441,
2001-12-18, 00:58:01,VALID,920.153,VALID,0,VALID,96.1956,VALID,-0.0509425,VALID,20.826,VALID,348,VALID,0.191636,
2001-12-18, 00:59:01,VALID,920.149,VALID,0,VALID,96.2655,VALID,-0.101885,VALID,20.8069,VALID,349,VALID,0,
2001-12-18, 01:00:01,VALID,920.154,VALID,0,VALID,96.4029,VALID,-0.0679233,VALID,20.7931,VALID,351,VALID,0.0512821,
2001-12-18, 01:01:01,VALID,920.142,VALID,0,VALID,96.5809,VALID,-0.0339617,VALID,20.7999,VALID,356,VALID,0.10853,
2001-12-18, 01:02:01,VALID,920.154,VALID,0,VALID,96.6445,VALID,-0.0509425,VALID,20.8359,VALID,357,VALID,0.0972451,
2001-12-18, 01:03:01,VALID,920.156,VALID,0,VALID,96.5631,VALID,-0.0679233,VALID,20.8352,VALID,357,VALID,0,
2001-12-18, 01:04:01,VALID,920.164,VALID,0,VALID,96.5046,VALID,-0.0849042,VALID,20.8262,VALID,357,VALID,0,
2001-12-18, 01:05:01,VALID,920.175,VALID,0,VALID,96.6127,VALID,-0.0339617,VALID,20.8389,VALID,358,VALID,0,
2001-12-18, 01:06:01,VALID,920.176,VALID,0,VALID,96.6521,VALID,0.0509425,VALID,20.857,VALID,359,VALID,0,
2001-12-18, 01:07:01,VALID,920.201,VALID,0,VALID,96.6534,VALID,0.0169808,VALID,20.8761,VALID,359,VALID,0,
2001-12-18, 01:08:01,VALID,920.198,VALID,0,VALID,96.6216,VALID,0.0169808,VALID,20.9122,VALID,359,VALID,0,
2001-12-18, 01:09:01,VALID,920.196,VALID,0,VALID,96.5911,VALID,0.0849042,VALID,20.9181,VALID,2,VALID,0.0890625,
2001-12-18, 01:10:00,VALID,920.198,VALID,0,VALID,96.5644,VALID,0.0849042,VALID,20.9235,VALID,10,VALID,0.243973,
2001-12-18, 01:11:00,VALID,920.2,VALID,0,VALID,96.5389,VALID,0.0509425,VALID,20.9564,VALID,10,VALID,0.252956,
2001-12-18, 01:12:00,VALID,920.202,VALID,0,VALID,96.3291,VALID,0.0509425,VALID,20.9335,VALID,1,VALID,0.393842,
2001-12-18, 01:13:00,VALID,920.219,VALID,0,VALID,96.1867,VALID,0.0509425,VALID,20.9111,VALID,359,VALID,0.185268,
2001-12-18, 01:14:00,VALID,920.208,VALID,0,VALID,96.2592,VALID,0.0169808,VALID,20.9047,VALID,359,VALID,0.120393,
2001-12-18, 01:15:00,VALID,920.21,VALID,0,VALID,96.3101,VALID,0.0679233,VALID,20.9146,VALID,5,VALID,0.331715,
2001-12-18, 01:16:00,VALID,920.224,VALID,0,VALID,96.3075,VALID,0.101885,VALID,20.9405,VALID,8,VALID,0.245888,
2001-12-18, 01:17:00,VALID,920.206,VALID,0,VALID,96.1371,VALID,0.0679233,VALID,20.9305,VALID,8,VALID,0.0236607,
2001-12-18, 01:18:00,VALID,920.217,VALID,0,VALID,96.1448,VALID,0.0509425,VALID,20.9275,VALID,8,VALID,0,
2001-12-18, 01:19:00,VALID,920.221,VALID,0,VALID,96.0799,VALID,0.0849042,VALID,20.9273,VALID,8,VALID,0,
2001-12-18, 01:20:00,VALID,920.217,VALID,0,VALID,95.9705,VALID,0.0339617,VALID,20.9055,VALID,8,VALID,0,
2001-12-18, 01:21:00,VALID,920.208,VALID,0,VALID,96.0583,VALID,-0.0339617,VALID,20.9165,VALID,331,VALID,0.067023,
2001-12-18, 01:22:00,VALID,920.198,VALID,0,VALID,96.1079,VALID,-0.0169808,VALID,20.9294,VALID,243,VALID,0.0400641,
2001-12-18, 01:23:00,VALID,920.186,VALID,0,VALID,96.1982,VALID,-0.0679233,VALID,20.9358,VALID,241,VALID,0,
2001-12-18, 01:24:00,VALID,920.168,VALID,0,VALID,96.2732,VALID,-0.0509425,VALID,20.9388,VALID,242,VALID,0,
2001-12-18, 01:25:00,VALID,920.14,VALID,0,VALID,96.2249,VALID,-0.0849042,VALID,20.9302,VALID,242,VALID,0,
2001-12-18, 01:26:00,VALID,920.122,VALID,0,VALID,96.3202,VALID,-0.0679233,VALID,20.9232,VALID,242,VALID,0,
2001-12-18, 01:27:00,VALID,920.1,VALID,0,VALID,96.3889,VALID,-0.0339617,VALID,20.9135,VALID,242,VALID,0,
2001-12-18, 01:28:00,VALID,920.093,VALID,0,VALID,96.4754,VALID,-0.0509425,VALID,20.9237,VALID,242,VALID,0,
2001-12-18, 01:29:00,VALID,920.066,VALID,0,VALID,96.6013,VALID,-0.101885,VALID,20.9264,VALID,246,VALID,0,
2001-12-18, 01:30:00,VALID,920.055,VALID,0,VALID,96.525,VALID,-0.0679233,VALID,20.9426,VALID,244,VALID,0,
2001-12-18, 01:31:00,VALID,920.05,VALID,0,VALID,96.3978,VALID,-0.0339617,VALID,20.9132,VALID,236,VALID,0,
2001-12-18, 01:32:00,VALID,920.039,VALID,0,VALID,96.3991,VALID,-0.0169808,VALID,20.8772,VALID,242,VALID,0.170272,
2001-12-18, 01:33:00,VALID,920.023,VALID,0,VALID,95.9388,VALID,-0.0169808,VALID,20.7573,VALID,251,VALID,0.660491,
2001-12-18, 01:34:00,VALID,919.988,VALID,0,VALID,95.9744,VALID,-0.0679233,VALID,20.7285,VALID,236,VALID,0.549045,
2001-12-18, 01:35:00,VALID,919.969,VALID,0,VALID,96.0328,VALID,-0.0339617,VALID,20.7161,VALID,231,VALID,0.394531,
2001-12-18, 01:36:00,VALID,919.94,VALID,0,VALID,96.1079,VALID,-0.0509425,VALID,20.7104,VALID,258,VALID,0.323117,
2001-12-18, 01:37:00,VALID,919.929,VALID,0,VALID,96.1905,VALID,-0.0339617,VALID,20.6903,VALID,238,VALID,0.291211,
2001-12-18, 01:38:00,VALID,919.926,VALID,0,VALID,96.3228,VALID,-0.0169808,VALID,20.6935,VALID,261,VALID,0.191071,
2001-12-18, 01:39:00,VALID,919.903,VALID,0,VALID,96.3266,VALID,-0.0169808,VALID,20.6736,VALID,307,VALID,0.206503,
2001-12-18, 01:40:00,VALID,919.889,VALID,0,VALID,96.394,VALID,-0.0509425,VALID,20.6577,VALID,307,VALID,0.0179228,
2001-12-18, 01:41:00,VALID,919.857,VALID,0,VALID,96.5313,VALID,-0.0339617,VALID,20.6577,VALID,307,VALID,0,
2001-12-18, 01:42:00,VALID,919.832,VALID,0,VALID,96.7068,VALID,-0.0509425,VALID,20.6838,VALID,307,VALID,0,
2001-12-18, 01:43:00,VALID,919.808,VALID,0,VALID,96.7971,VALID,-0.0509425,VALID,20.7129,VALID,307,VALID,0,
2001-12-18, 01:44:00,VALID,919.787,VALID,0,VALID,96.7615,VALID,-0.0509425,VALID,20.7258,VALID,328,VALID,0,
2001-12-18, 01:45:00,VALID,919.749,VALID,0,VALID,96.8467,VALID,-0.101885,VALID,20.749,VALID,352,VALID,0.0506696,
2001-12-18, 01:46:00,VALID,919.723,VALID,0,VALID,96.8212,VALID,-0.0679233,VALID,20.7514,VALID,355,VALID,0.211338,
2001-12-18, 01:47:00,VALID,919.695,VALID,0,VALID,96.6801,VALID,-0.0679233,VALID,20.7552,VALID,11,VALID,0.716856,
2001-12-18, 01:48:00,VALID,919.686,VALID,0,VALID,96.5021,VALID,-0.0339617,VALID,20.7261,VALID,8,VALID,0.936415,
2001-12-18, 01:49:00,VALID,919.661,VALID,0,VALID,96.4881,VALID,-0.0509425,VALID,20.6997,VALID,25,VALID,0.802632,
2001-12-18, 01:50:00,VALID,919.645,VALID,0,VALID,96.4436,VALID,-0.0679233,VALID,20.6873,VALID,22,VALID,0.538061,
2001-12-18, 01:51:00,VALID,919.627,VALID,0,VALID,96.4423,VALID,-0.0169808,VALID,20.6741,VALID,13,VALID,0.152734,
2001-12-18, 01:52:00,VALID,919.612,VALID,0,VALID,96.4321,VALID,-0.0339617,VALID,20.6677,VALID,13,VALID,0.000892857,
2001-12-18, 01:53:00,VALID,919.6,VALID,0,VALID,96.2808,VALID,-0.0339617,VALID,20.6418,VALID,15,VALID,0.211993,
2001-12-18, 01:54:00,VALID,919.584,VALID,0,VALID,96.1791,VALID,-0.0679233,VALID,20.6329,VALID,31,VALID,0.0850184,
2001-12-18, 01:55:00,VALID,919.564,VALID,0,VALID,96.1575,VALID,-0.0679233,VALID,20.6036,VALID,94,VALID,0.180357,
2001-12-18, 01:56:00,VALID,919.571,VALID,0,VALID,96.2655,VALID,-0.0849042,VALID,20.5844,VALID,165,VALID,0.269431,
2001-12-18, 01:57:00,VALID,919.563,VALID,0,VALID,96.2948,VALID,-0.0679233,VALID,20.5554,VALID,211,VALID,0.490076,
2001-12-18, 01:58:00,VALID,919.573,VALID,0,VALID,96.3507,VALID,-0.0679233,VALID,20.526,VALID,204,VALID,0.711143,
2001-12-18, 01:59:00,VALID,919.566,VALID,0,VALID,96.4741,VALID,-0.0679233,VALID,20.4907,VALID,197,VALID,0.522545,
2001-12-18, 02:00:00,VALID,919.551,VALID,0,VALID,96.5542,VALID,-0.0339617,VALID,20.4778,VALID,183,VALID,0.691506,
2001-12-18, 02:01:00,VALID,919.54,VALID,0,VALID,96.6102,VALID,-0.0169808,VALID,20.448,VALID,174,VALID,0.452178,
2001-12-18, 02:02:00,VALID,919.522,VALID,0,VALID,96.6737,VALID,-0.0509425,VALID,20.4355,VALID,170,VALID,0.29796,
2001-12-18, 02:03:00,VALID,919.49,VALID,0,VALID,96.7233,VALID,-0.0849042,VALID,20.4194,VALID,192,VALID,0.433594,
2001-12-18, 02:04:00,VALID,919.45,VALID,0,VALID,96.7971,VALID,-0.0339617,VALID,20.41,VALID,183,VALID,0.307692,
2001-12-18, 02:05:00,VALID,919.43,VALID,0,VALID,96.8556,VALID,-0.0509425,VALID,20.397,VALID,187,VALID,0.0380859,
2001-12-18, 02:06:00,VALID,919.417,VALID,0,VALID,96.8848,VALID,-0.101885,VALID,20.3973,VALID,216,VALID,0.212054,
2001-12-18, 02:07:00,VALID,919.418,VALID,0,VALID,96.8861,VALID,-0.0849042,VALID,20.3873,VALID,170,VALID,0.424198,
2001-12-18, 02:08:00,VALID,919.426,VALID,0,VALID,96.8975,VALID,-0.0849042,VALID,20.3846,VALID,167,VALID,0.431296,
2001-12-18, 02:09:00,VALID,919.418,VALID,0,VALID,96.8696,VALID,-0.101885,VALID,20.3717,VALID,159,VALID,0.376339,
2001-12-18, 02:10:00,VALID,919.405,VALID,0,VALID,96.8848,VALID,-0.101885,VALID,20.3588,VALID,159,VALID,0.195513,
2001-12-18, 02:11:00,VALID,919.392,VALID,0,VALID,96.8632,VALID,-0.0849042,VALID,20.3496,VALID,143,VALID,0.0565878,
2001-12-18, 02:12:00,VALID,919.376,VALID,0,VALID,96.8899,VALID,-0.0849042,VALID,20.3287,VALID,126,VALID,0.00452303,
2001-12-18, 02:13:00,VALID,919.36,VALID,0,VALID,96.923,VALID,-0.0509425,VALID,20.3391,VALID,122,VALID,0,
2001-12-18, 02:14:00,VALID,919.336,VALID,0,VALID,96.909,VALID,-0.0679233,VALID,20.3389,VALID,53,VALID,0.066907,
2001-12-18, 02:15:00,VALID,919.324,VALID,0,VALID,96.8836,VALID,-0.0339617,VALID,20.3426,VALID,48,VALID,0.326941,
2001-12-18, 02:16:00,VALID,919.304,VALID,0,VALID,96.8696,VALID,-0.0509425,VALID,20.3456,VALID,47,VALID,0,
2001-12-18, 02:17:00,VALID,919.305,VALID,0,VALID,96.7996,VALID,-0.0849042,VALID,20.3332,VALID,47,VALID,0,
2001-12-18, 02:18:00,VALID,919.294,VALID,0,VALID,96.7411,VALID,-0.0509425,VALID,20.323,VALID,50,VALID,0,
2001-12-18, 02:19:00,VALID,919.294,VALID,0,VALID,96.661,VALID,-0.101885,VALID,20.3165,VALID,57,VALID,0,
2001-12-18, 02:20:00,VALID,919.303,VALID,0,VALID,96.7055,VALID,-0.0849042,VALID,20.3036,VALID,38,VALID,0.503571,
2001-12-18, 02:21:00,VALID,919.308,VALID,0,VALID,96.7551,VALID,0.0339617,VALID,20.3021,VALID,37,VALID,0.417863,
2001-12-18, 02:22:00,VALID,919.317,VALID,0,VALID,96.8238,VALID,0.0339617,VALID,20.3147,VALID,37,VALID,0.201976,
2001-12-18, 02:23:00,VALID,919.321,VALID,0,VALID,96.8047,VALID,0.0679233,VALID,20.3147,VALID,37,VALID,0,
2001-12-18, 02:24:00,VALID,919.306,VALID,0,VALID,96.7666,VALID,0.0679233,VALID,20.3247,VALID,37,VALID,0,
2001-12-18, 02:25:00,VALID,919.304,VALID,0,VALID,96.8085,VALID,0,VALID,20.3379,VALID,82,VALID,0,
2001-12-18, 02:26:00,VALID,919.271,VALID,0,VALID,96.8772,VALID,0.0169808,VALID,20.3346,VALID,133,VALID,0.186472,
2001-12-18, 02:27:00,VALID,919.245,VALID,0,VALID,96.8925,VALID,0.0169808,VALID,20.3314,VALID,138,VALID,0.624777,
2001-12-18, 02:28:00,VALID,919.203,VALID,0,VALID,96.8454,VALID,0,VALID,20.322,VALID,143,VALID,0.685897,
2001-12-18, 02:29:00,VALID,919.167,VALID,0,VALID,96.8899,VALID,0.0339617,VALID,20.2991,VALID,146,VALID,0.801136,
2001-12-18, 02:30:00,VALID,919.149,VALID,0,VALID,96.9217,VALID,0.0169808,VALID,20.2829,VALID,141,VALID,0.490451,
2001-12-18, 02:31:00,VALID,919.129,VALID,0,VALID,96.8416,VALID,-0.0679233,VALID,20.2546,VALID,132,VALID,0.478002,
2001-12-18, 02:32:00,VALID,919.103,VALID,0,VALID,96.8276,VALID,-0.0509425,VALID,20.2261,VALID,119,VALID,0.533053,
2001-12-18, 02:33:00,VALID,919.11,VALID,0,VALID,96.8759,VALID,-0.0679233,VALID,20.2005,VALID,114,VALID,0.510352,
2001-12-18, 02:34:00,VALID,919.098,VALID,0,VALID,96.8937,VALID,-0.0679233,VALID,20.1644,VALID,114,VALID,0.503125,
2001-12-18, 02:35:00,VALID,919.093,VALID,0,VALID,96.998,VALID,-0.0849042,VALID,20.1455,VALID,104,VALID,0.265203,
2001-12-18, 02:36:00,VALID,919.084,VALID,0,VALID,97.1074,VALID,0,VALID,20.1316,VALID,103,VALID,0.377987,
2001-12-18, 02:37:00,VALID,919.064,VALID,0,VALID,97.2193,VALID,0,VALID,20.1251,VALID,103,VALID,0.0533482,
2001-12-18, 02:38:00,VALID,919.049,VALID,0,VALID,97.307,VALID,0.0169808,VALID,20.1251,VALID,103,VALID,0,
2001-12-18, 02:39:00,VALID,919.027,VALID,0,VALID,97.3464,VALID,0,VALID,20.1286,VALID,103,VALID,0.00105574,
2001-12-18, 02:40:00,VALID,918.992,VALID,0,VALID,97.3388,VALID,0,VALID,20.1115,VALID,112,VALID,0.165502,
2001-12-18, 02:41:00,VALID,918.95,VALID,0,VALID,97.3121,VALID,-0.0339617,VALID,20.1018,VALID,147,VALID,0.553348,
2001-12-18, 02:42:00,VALID,918.917,VALID,0,VALID,97.368,VALID,0,VALID,20.1055,VALID,150,VALID,0.645032,
2001-12-18, 02:43:00,VALID,918.871,VALID,0,VALID,97.3731,VALID,-0.0169808,VALID,20.1028,VALID,142,VALID,0.669271,
2001-12-18, 02:44:00,VALID,918.821,VALID,0,VALID,97.349,VALID,-0.0169808,VALID,20.0896,VALID,142,VALID,0.506727,
2001-12-18, 02:45:00,VALID,918.794,VALID,0,VALID,97.3057,VALID,0,VALID,20.0603,VALID,139,VALID,0.436883,
2001-12-18, 02:46:00,VALID,918.774,VALID,0,VALID,97.2981,VALID,0,VALID,20.0315,VALID,139,VALID,0.36899,
2001-12-18, 02:47:00,VALID,918.765,VALID,0,VALID,97.3134,VALID,-0.0169808,VALID,20.0193,VALID,131,VALID,0.412891,
2001-12-18, 02:48:00,VALID,918.766,VALID,0,VALID,97.2828,VALID,-0.0169808,VALID,19.9805,VALID,117,VALID,0.552902,
2001-12-18, 02:49:00,VALID,918.759,VALID,0,VALID,97.3591,VALID,0,VALID,19.9539,VALID,110,VALID,0.733742,
2001-12-18, 02:50:00,VALID,918.776,VALID,0,VALID,97.4481,VALID,-0.0169808,VALID,19.9186,VALID,109,VALID,0.889936,
2001-12-18, 02:51:00,VALID,918.789,VALID,0,VALID,97.6071,VALID,0,VALID,19.9184,VALID,111,VALID,0.972321,
2001-12-18, 02:52:00,VALID,918.806,VALID,0,VALID,97.7228,VALID,0,VALID,19.9089,VALID,108,VALID,0.78726,
2001-12-18, 02:53:00,VALID,918.817,VALID,0,VALID,97.6249,VALID,0,VALID,19.8831,VALID,91,VALID,0.575802,
2001-12-18, 02:54:00,VALID,918.824,VALID,0,VALID,97.5206,VALID,0,VALID,19.8185,VALID,83,VALID,0.757607,
2001-12-18, 02:55:00,VALID,918.828,VALID,0,VALID,97.485,VALID,0,VALID,19.7507,VALID,72,VALID,0.741295,
2001-12-18, 02:56:00,VALID,918.818,VALID,0,VALID,97.5117,VALID,0,VALID,19.7059,VALID,68,VALID,0.614984,
2001-12-18, 02:57:00,VALID,918.821,VALID,0,VALID,97.4647,VALID,0,VALID,19.6538,VALID,61,VALID,0.565341,
2001-12-18, 02:58:00,VALID,918.824,VALID,0,VALID,97.5791,VALID,0,VALID,19.6212,VALID,61,VALID,0.550781,
2001-12-18, 02:59:00,VALID,918.821,VALID,0,VALID,97.6898,VALID,0.0169808,VALID,19.5988,VALID,69,VALID,0.700041,
2001-12-18, 03:00:00,VALID,918.818,VALID,0,VALID,97.9085,VALID,0,VALID,19.618,VALID,82,VALID,0.605168,
2001-12-18, 03:01:00,VALID,918.817,VALID,0,VALID,97.9924,VALID,-0.0169808,VALID,19.6282,VALID,115,VALID,0.538672,
2001-12-18, 03:02:00,VALID,918.817,VALID,0,VALID,98.1882,VALID,0,VALID,19.6605,VALID,93,VALID,0.75692,
2001-12-18, 03:03:00,VALID,918.818,VALID,0,VALID,98.2225,VALID,0,VALID,19.6769,VALID,98,VALID,0.466639,
2001-12-18, 03:04:00,VALID,918.828,VALID,0,VALID,98.3993,VALID,0,VALID,19.7189,VALID,112,VALID,0.546186,
2001-12-18, 03:05:00,VALID,918.844,VALID,0,VALID,98.426,VALID,0,VALID,19.738,VALID,109,VALID,0.374107,
2001-12-18, 03:06:00,VALID,918.851,VALID,0,VALID,98.4018,VALID,0,VALID,19.7507,VALID,107,VALID,0.27484,
2001-12-18, 03:07:00,VALID,918.869,VALID,0,VALID,98.4057,VALID,0,VALID,19.7477,VALID,117,VALID,0.548775,
2001-12-18, 03:08:00,VALID,918.882,VALID,0,VALID,98.4629,VALID,-0.0169808,VALID,19.7676,VALID,134,VALID,0.695929,
2001-12-18, 03:09:00,VALID,918.888,VALID,0,VALID,98.4387,VALID,0,VALID,19.7735,VALID,147,VALID,0.781473,
2001-12-18, 03:10:00,VALID,918.884,VALID,0,VALID,98.398,VALID,-0.0169808,VALID,19.7671,VALID,152,VALID,0.815905,
2001-12-18, 03:11:00,VALID,918.882,VALID,0,VALID,98.3764,VALID,0,VALID,19.7512,VALID,152,VALID,1.03551,
2001-12-18, 03:12:00,VALID,918.874,VALID,0,VALID,98.3662,VALID,-0.0169808,VALID,19.735,VALID,153,VALID,1.09939,
2001-12-18, 03:13:00,VALID,918.857,VALID,0,VALID,98.4069,VALID,0.0169808,VALID,19.7387,VALID,151,VALID,1.01912,
2001-12-18, 03:14:00,VALID,918.845,VALID,0,VALID,98.3993,VALID,0,VALID,19.742,VALID,143,VALID,0.765224,
2001-12-18, 03:15:00,VALID,918.846,VALID,0,VALID,98.3713,VALID,-0.0169808,VALID,19.7253,VALID,122,VALID,0.514258,
2001-12-18, 03:16:00,VALID,918.841,VALID,0,VALID,98.4069,VALID,0,VALID,19.7258,VALID,133,VALID,0.807366,
2001-12-18, 03:17:00,VALID,918.865,VALID,0,VALID,98.3154,VALID,-0.0169808,VALID,19.7129,VALID,109,VALID,0.452703,
2001-12-18, 03:18:00,VALID,918.891,VALID,0,VALID,98.1793,VALID,-0.0339617,VALID,19.6615,VALID,94,VALID,0.0661765,
2001-12-18, 03:19:00,VALID,918.897,VALID,0,VALID,98.1437,VALID,-0.0509425,VALID,19.6095,VALID,94,VALID,0,
2001-12-18, 03:20:00,VALID,918.894,VALID,0,VALID,98.1221,VALID,0,VALID,19.5839,VALID,94,VALID,0,
2001-12-18, 03:21:00,VALID,918.903,VALID,0,VALID,98.1068,VALID,-0.0339617,VALID,19.5675,VALID,94,VALID,0,
2001-12-18, 03:22:00,VALID,918.894,VALID,0,VALID,98.0916,VALID,-0.0339617,VALID,19.5546,VALID,94,VALID,0,
2001-12-18, 03:23:00,VALID,918.885,VALID,0,VALID,98.0967,VALID,-0.0169808,VALID,19.5613,VALID,94,VALID,0,
2001-12-18, 03:24:00,VALID,918.87,VALID,0,VALID,98.1361,VALID,0,VALID,19.5581,VALID,100,VALID,0.109175,
2001-12-18, 03:25:00,VALID,918.857,VALID,0,VALID,98.2111,VALID,0,VALID,19.5705,VALID,289,VALID,0.548769,
2001-12-18, 03:26:00,VALID,918.846,VALID,0,VALID,98.3103,VALID,0,VALID,19.6065,VALID,276,VALID,0.581597,
2001-12-18, 03:27:00,VALID,918.829,VALID,0,VALID,98.3001,VALID,-0.0169808,VALID,19.5966,VALID,263,VALID,0.199013,
2001-12-18, 03:28:00,VALID,918.82,VALID,0,VALID,98.0674,VALID,-0.0169808,VALID,19.5385,VALID,307,VALID,0.000200321,
2001-12-18, 03:29:00,VALID,918.825,VALID,0,VALID,97.7495,VALID,-0.0169808,VALID,19.413,VALID,2,VALID,0.727539,
2001-12-18, 03:30:00,VALID,918.834,VALID,0,VALID,97.7813,VALID,-0.0169808,VALID,19.3576,VALID,10,VALID,0.835938,
2001-12-18, 03:31:00,VALID,918.816,VALID,0,VALID,97.8983,VALID,-0.0339617,VALID,19.3539,VALID,360,VALID,0.509502,
2001-12-18, 03:32:00,VALID,918.807,VALID,0,VALID,98.1704,VALID,0,VALID,19.4256,VALID,342,VALID,0.449678,
2001-12-18, 03:33:00,VALID,918.8,VALID,0,VALID,98.2989,VALID,0,VALID,19.4706,VALID,340,VALID,0.251116,
2001-12-18, 03:34:00,VALID,918.789,VALID,0,VALID,98.4209,VALID,0,VALID,19.5322,VALID,327,VALID,0.257813,
2001-12-18, 03:35:00,VALID,918.782,VALID,0,VALID,98.4616,VALID,0,VALID,19.5611,VALID,327,VALID,0.201858,